Location: Bush Observatory
(40.2653°N, 94.3194°W)
Time: 12:50:30
(UTC-05:00)

FO-29 - Visible Passes

Search period start: 28 April 2017 00:00
Search period end: 08 May 2017 00:00
Orbit: 799 x 1322 km, 98.6° (Epoch: 26 April)

Date Brightness Start Highest point End Pass type
(mag) Time Alt. Az. Time Alt. Az. Time Alt. Az.
28 Apr 11.7 01:39:13 10° NW 01:40:11 10° WNW 01:40:42 10° WNW visible
28 Apr 10.6 22:55:56 10° NE 22:58:34 24° ENE 22:58:34 24° ENE visible
29 Apr 10.6 00:41:06 10° N 00:45:03 30° NW 00:45:03 30° NW visible
29 Apr 9.7 23:45:28 10° NNE 23:49:23 53° NNE 23:49:23 53° NNE visible
30 Apr 11.6 01:33:24 10° NW 01:35:13 12° WNW 01:35:52 11° WNW visible
30 Apr 10.6 22:50:56 10° NE 22:53:44 24° ENE 22:53:44 24° ENE visible
01 May 10.5 00:35:56 10° N 00:40:13 34° WNW 00:40:13 34° WNW visible
01 May 9.6 23:40:22 10° NNE 23:44:34 57° NNE 23:44:34 57° NNE visible
02 May 11.6 01:27:51 10° NW 01:30:14 13° WNW 01:31:03 13° WNW visible
02 May 10.6 22:45:56 10° NE 22:48:55 24° ENE 22:48:55 24° ENE visible
03 May 10.3 00:30:46 10° N 00:35:25 37° WNW 00:35:25 37° WNW visible
03 May 9.5 23:35:17 10° NNE 23:39:46 61° NE 23:39:46 61° NE visible
04 May 11.5 01:22:25 10° NNW 01:25:16 15° WNW 01:26:15 14° WNW visible
04 May 10.6 22:40:56 10° NE 22:44:07 23° ENE 22:44:07 23° ENE visible
05 May 10.2 00:25:36 10° N 00:30:37 41° WNW 00:30:37 41° WNW visible
05 May 9.4 23:30:11 10° NNE 23:34:59 63° ENE 23:34:59 63° ENE visible
06 May 11.4 01:17:03 10° NNW 01:20:17 16° WNW 01:21:29 15° WNW visible
06 May 10.7 22:35:58 10° NE 22:39:20 23° E 22:39:20 23° E visible
07 May 10.1 00:20:26 10° N 00:25:36 45° WNW 00:25:50 45° WNW visible
07 May 9.4 23:25:06 10° NNE 23:30:13 63° E 23:30:13 63° E visible
